Regional Weather Roundup
Issued by NWS Northern Indiana

Home | Current Version | Previous Version | Graphics & Text | Print | Product List | Glossary On
Versions: 1 2 3 4 5 6 7 8 9 10 11 12 13 14 15 16 17 18 19 20 21 22 23 24 25 26 27 28 29 30 31 32 33 34 35 36 37 38 39 40 41 42 43 44 45 46 47 48 49 50
000
ASUS43 KIWX 241000
RWRIWX

KIWX WEATHER ROUNDUP
NATIONAL WEATHER SERVICE NORTHERN INDIANA
600 AM EDT THU JUL 24 2014

NOTE: "FAIR" INDICATES FEW OR NO CLOUDS BELOW 12,000 FEET WITH NO
SIGNIFICANT WEATHER AND/OR OBSTRUCTIONS TO VISIBILITY.

* THESE STATIONS ARE NOT UNDER NWS QUALITY CONTROL. THEY ALSO MAY NOT
  REPORT WEATHER SUCH AS PRECIPITATION OR FOG.

INZ001>027-241100-
NORTHERN INDIANA

CITY           SKY/WX    TMP DP  RH WIND       PRES   REMARKS
VALPARAISO     CLEAR     56  52  86 VRB5      30.12R
KNOX*          CLEAR     51  49  93 N6        30.11R
SOUTH BEND     MOCLDY    56  52  86 NE7       30.12R
GOSHEN         PTCLDY    58  55  90 N5        30.10R
MONTICELLO*    CLEAR     56  55  95 N3        30.08R
WARSAW*        PTCLDY    55  55 100 CALM      30.10R
ANGOLA*        CLOUDY    61  52  72 NE5       30.11R
FORT WAYNE     MOCLDY    62  58  86 NE8       30.10R
PERU/GRISSOM   CLEAR     55  55 100 NE6       30.08R

$$
INZ028>050-241100-
CENTRAL INDIANA

CITY           SKY/WX    TMP DP  RH WIND       PRES   REMARKS
LAFAYETTE      CLEAR     55  54  96 CALM      30.09R
KOKOMO*        PTCLDY    55  54  94 E3        30.08S
MUNCIE*        CLOUDY    60  58  92 NE3       30.07R FOG
INDIANAPOLIS   PTCLDY    59  56  89 NE9       30.05R

$$
MIZ043>046-050>051-056>058-064>065-071>073-077>080-241100-
SOUTHWEST LOWER MICHIGAN

CITY           SKY/WX    TMP DP  RH WIND       PRES   REMARKS
BATTLE CREEK   MOCLDY    58  54  86 N8        30.13R
BENTON HARBOR  PTCLDY    54  52  93 CALM      30.12R
COLDWATER*     CLOUDY    58  56  94 N3        30.11R
HILLSDALE*     CLEAR     56  52  87 CALM      30.11R
HOLLAND        CLEAR     57  51  80 VRB3      30.15R
GRAND RAPIDS   PTCLDY    56  52  86 N5        30.14R
KALAMAZOO      MOCLDY    57  53  86 N7        30.13R
STURGIS*       CLOUDY    57  55  94 N6        30.11R
THREE RIVERS*  MOCLDY    59  57  92 CALM      30.12R

$$
OHZ001>008-015>018-024>025-241100-
NORTHWEST OHIO

CITY           SKY/WX    TMP DP  RH WIND       PRES   REMARKS
DEFIANCE       CLEAR     57  53  86 N5        30.10R
FINDLAY        CLEAR     56  53  90 NW6       30.06R
TOLEDO EXPRESS CLEAR     55  51  86 N5        30.08R
TOLEDO METCALF CLEAR     58  50  75 N7        30.08R
LIMA           CLEAR     57  55  93 N5        30.07S FOG

$$
&&


USA.gov is the U.S. government's official web portal to all federal, state and local government web resources and services.